Location: Coed Ely
(51.5661°N, 3.4150°W)
Time: 20:01:31
(UTC+00:00)

CZ-2C R/B - Pass Details

Date: 28 January 2021
Orbit: 785 x 870 km, 98.2° (Epoch: 27 February)

Event Time Altitude Azimuth Distance (km) Brightness Sun altitude
Rises 20:10:06 0° 12° (NNE) 3,439 5.9 -30.0°
Enters shadow 20:12:00 - 10° (N) 2,695 5.3 -30.3°
Exits shadow 20:15:10 29° 359° (N) 1,544 4.1 -30.7°
Maximum altitude 20:17:58 60° 291° (WNW) 994 3.2 -31.2°
Drops below altitude 10° 20:23:28 10° 213° (SSW) 2,513 5.4 -32.0°
Sets 20:25:53 0° 210° (SSW) 3,447 6.1 -32.4°
